Starlink 31192

operational
NORAD ID: 58794 Int'l Des: 2024-012 Owner: SPXS Country: US Constellation: starlink
LEOCIRCULAR

About Starlink 31192

Description loading...

Live Position

Loading 3D Globe...

Upcoming Passes

Altitude History

Altitude vs Time

uPlot chart will show altitude changes over time

Two-Line Element Set

1 58794U 24012H 25258.18094382 -.00001978 00000-0 -65805-4 0 9994
2 58794 43.0007 76.4687 0001532 273.0887 86.9788 15.25897831 94393
Epoch: Sep 15, 2025 • Age: 22 hours

Current Status

Altitude 487.8 km
Velocity 7.62 km/s
Sub-Earth Point -0.48°S, 40.5°E
Launch Date Jan 15, 2024
Age 1.6 years
Type internet

Technical Details

Classification Payload
Mass 730.00 kg
Dry Mass 700.00 kg
Total Mass 730.00 kg
Length 0.30 m
Diameter 4.10 m
Span 29.00 m
Shape Box + pan
Manufacturer SPXS
Bus Type Starlink V2M
Phase Status In Orbit
Owner/State SPXS/US

Large Constellations

Loading constellations...